| time (UTC) | temp F | wind direction | speed knots | gust knots | rain 1hr in | rain 24hr in | rain mn in | humidity % | barometer mb |
| 20260506093813 | 57 | 63 | 3.5 | 9.6 | 0.00 | 0.09 | 0.01 | 61 | 1007.7 |
| 20260506093314 | 57 | 94 | 2.6 | 9.6 | 0.00 | 0.09 | 0.01 | 62 | 1007.6 |
| 20260506092809 | 57 | 79 | 3.5 | 10.4 | 0.00 | 0.09 | 0.00 | 66 | 1007.7 |
| 20260506092316 | 56 | 42 | 3.5 | 10.4 | 0.00 | 0.09 | 0.00 | 68 | 1007.7 |
| 20260506091814 | 56 | 30 | 3.5 | 9.6 | 0.00 | 0.09 | 0.00 | 68 | 1007.6 |
| 20260506090812 | 56 | 59 | 3.5 | 7.0 | 0.00 | 0.09 | 0.00 | 70 | 1007.6 |
| 20260506090325 | 56 | 67 | 3.5 | 0.0 | 0.00 | 0.00 | 0.00 | 69 | 1007.6 |
| 20260506083830 | 56 | 63 | 4.3 | 10.4 | 0.00 | 0.09 | 0.02 | 73 | 1007.5 |
| 20260506083349 | 56 | 59 | 3.5 | 10.4 | 0.00 | 0.09 | 0.02 | 74 | 1007.5 |
| 20260506082836 | 56 | 36 | 3.5 | 14.8 | 0.00 | 0.09 | 0.02 | 77 | 1007.5 |
| 20260506081822 | 55 | 86 | 4.3 | 10.4 | 0.00 | 0.09 | 0.02 | 78 | 1007.4 |
| 20260506081333 | 55 | 66 | 4.3 | 10.4 | 0.00 | 0.09 | 0.00 | 77 | 1007.4 |
| 20260506080758 | 55 | 71 | 3.5 | 7.0 | 0.00 | 0.09 | 0.00 | 79 | 1007.4 |
| 20260506080326 | 55 | 18 | 4.3 | 0.0 | 0.00 | 0.00 | 0.00 | 79 | 1007.4 |
| 20260506071613 | 55 | 30 | 3.5 | 8.7 | 0.00 | 0.09 | 0.00 | 80 | 1007.2 |
| 20260506071117 | 55 | 53 | 4.3 | 13.9 | 0.00 | 0.09 | 0.00 | 81 | 1007.2 |
| 20260506070611 | 55 | 86 | 4.3 | 13.9 | 0.00 | 0.09 | 0.00 | 82 | 1007.2 |
| 20260506070129 | 54 | 130 | 4.3 | 0.0 | 0.00 | 0.00 | 0.00 | 84 | 1007.2 |
| 20260506061949 | 51 | 43 | 2.6 | 9.6 | 0.00 | 0.09 | 0.00 | 89 | 1007.0 |
| 20260506060959 | 51 | 57 | 4.3 | 0.0 | 0.00 | 0.00 | 0.00 | 89 | 1007.0 |
| 20260506051321 | 51 | 53 | 3.5 | 9.6 | 0.00 | 0.09 | 0.00 | 89 | 1006.9 |
| 20260506050822 | 51 | 56 | 3.5 | 9.6 | 0.00 | 0.09 | 0.00 | 89 | 1006.9 |
| 20260506044826 | 51 | 64 | 2.6 | 0.0 | 0.00 | 0.00 | 0.00 | 89 | 1006.9 |
| 20260506044449 | 51 | 61 | 2.6 | 7.8 | 0.02 | 0.09 | 0.00 | 89 | 1006.9 |
| 20260506043940 | 51 | 77 | 3.5 | 10.4 | 0.02 | 0.09 | 0.00 | 89 | 1006.9 |
| 20260506043451 | 51 | 46 | 3.5 | 10.4 | 0.02 | 0.09 | 0.00 | 89 | 1006.9 |
| 20260506042454 | 51 | 69 | 3.5 | 0.0 | 0.00 | 0.00 | 0.00 | 89 | 1006.8 |
| 20260506041608 | 51 | 38 | 3.5 | 7.8 | 0.02 | 0.09 | 0.00 | 89 | 1006.8 |
| 20260506041052 | 51 | 38 | 3.5 | 7.8 | 0.02 | 0.09 | 0.00 | 89 | 1006.8 |
| 20260506040556 | 51 | 30 | 4.3 | 8.7 | 0.00 | 0.00 | 0.00 | 88 | 1006.8 |
| 20260506040110 | 51 | 45 | 3.5 | 8.7 | 0.00 | 0.07 | 0.02 | 88 | 1006.9 |
| 20260506035109 | 51 | 32 | 3.5 | 10.4 | 0.00 | 0.07 | 0.00 | 88 | 1006.9 |
| 20260506034614 | 51 | 36 | 4.3 | 10.4 | 0.00 | 0.07 | 0.00 | 88 | 1006.8 |